When you browse on this site, cookies collect data to enhance your experience and personalize the content and advertising you see.
Visit our Privacy Policy to learn more. By continuing to use the site, you agree to this use of cookies and data.
  • In Czech Republic
  • List of Countries
  • For 7 days
  • Water Temperature
  • Weather Map
  • Weather Widgets
  • user-avatar
    Login

    Hourly Weather Sinyavino

    Today, 16 February, Sunday

    Time Temperature Precipitation Wind Pressure Humidity
    00:00 -6°C° 0 mm 2 mps 756 mmHg 94%
    01:00 -6°C° 0 mm 2 mps 756 mmHg 95%
    02:00 -6°C° 0 mm 2 mps 756 mmHg 98%
    03:00 -5°C° 0 mm 2 mps 756 mmHg 98%
    04:00 -6°C° 0 mm 3 mps 756 mmHg 97%
    05:00 -6°C° 0 mm 3 mps 756 mmHg 97%
    06:00 -5°C° 0 mm 3 mps 757 mmHg 97%
    07:00 -5°C° 0 mm 3 mps 757 mmHg 97%
    08:00 -5°C° 0 mm 4 mps 757 mmHg 95%
    09:00 -4°C° 0 mm 4 mps 756 mmHg 94%
    10:00 -3°C° 0 mm 4 mps 756 mmHg 93%
    11:00 -3°C° 0 mm 4 mps 756 mmHg 91%
    12:00 -2°C° 0 mm 5 mps 756 mmHg 90%
    13:00 -2°C° 0 mm 5 mps 755 mmHg 90%
    14:00 -1°C° 0 mm 5 mps 755 mmHg 89%
    15:00 -1°C° 0 mm 5 mps 755 mmHg 90%
    16:00 -2°C° 0 mm 6 mps 755 mmHg 91%
    17:00 -2°C° 0 mm 6 mps 754 mmHg 92%
    18:00 -2°C° 0 mm 7 mps 754 mmHg 92%
    19:00 -2°C° 0 mm 7 mps 754 mmHg 91%
    20:00 -2°C° 0 mm 7 mps 753 mmHg 91%
    21:00 -2°C° 0 mm 8 mps 753 mmHg 91%
    22:00 -2°C° 0 mm 8 mps 753 mmHg 91%
    23:00 -3°C° 0 mm 9 mps 752 mmHg 91%

    Tomorrow, 17 February, Monday

    Time Temperature Precipitation Wind Pressure Humidity
    00:00 -3°C° 0 mm 9 mps 752 mmHg 90%
    01:00 -3°C° 0 mm 9 mps 751 mmHg 89%
    02:00 -3°C° 0 mm 9 mps 751 mmHg 89%
    03:00 -3°C° 0 mm 9 mps 750 mmHg 87%
    04:00 -3°C° 0 mm 9 mps 750 mmHg 85%
    05:00 -4°C° 0 mm 9 mps 749 mmHg 83%
    06:00 -4°C° 0 mm 10 mps 749 mmHg 83%
    07:00 -3°C° 0 mm 10 mps 749 mmHg 82%
    08:00 -3°C° 0 mm 10 mps 749 mmHg 81%
    09:00 -3°C° 0 mm 10 mps 748 mmHg 81%
    10:00 -3°C° 0 mm 10 mps 747 mmHg 80%
    11:00 -3°C° 0 mm 10 mps 747 mmHg 80%
    12:00 -2°C° 0 mm 10 mps 747 mmHg 80%
    13:00 -2°C° 0 mm 10 mps 747 mmHg 81%
    14:00 -2°C° 0 mm 10 mps 747 mmHg 82%
    15:00 -2°C° 0 mm 10 mps 747 mmHg 81%
    16:00 -2°C° 0 mm 10 mps 746 mmHg 80%
    17:00 -2°C° 0 mm 10 mps 746 mmHg 79%
    18:00 -1°C° 0 mm 9 mps 747 mmHg 80%
    19:00 -1°C° 0 mm 9 mps 747 mmHg 80%
    20:00 -1°C° 0 mm 9 mps 747 mmHg 81%
    21:00 -1°C° 0 mm 8 mps 747 mmHg 83%
    22:00 -1°C° 0 mm 8 mps 747 mmHg 85%
    23:00 -1°C° 0 mm 7 mps 747 mmHg 88%

    Day after tomorrow, 18 February, Tuesday

    Time Temperature Precipitation Wind Pressure Humidity
    00:00 -1°C° 0.3 mm 7 mps 747 mmHg 91%
    01:00 -1°C° 0.3 mm 6 mps 747 mmHg 94%
    02:00 -1°C° 0.3 mm 6 mps 748 mmHg 97%
    03:00 -1°C° 0.5 mm 6 mps 747 mmHg 97%
    04:00 -1°C° 0.5 mm 5 mps 747 mmHg 98%
    05:00 -1°C° 0.5 mm 5 mps 747 mmHg 98%
    06:00 -1°C° 0.6 mm 5 mps 747 mmHg 98%
    07:00 -1°C° 0.6 mm 5 mps 747 mmHg 98%
    08:00 -1°C° 0.6 mm 5 mps 747 mmHg 98%
    09:00 -1°C° 0.7 mm 4 mps 746 mmHg 99%
    10:00 -1°C° 0.7 mm 4 mps 746 mmHg 99%
    11:00 -1°C° 0.7 mm 4 mps 746 mmHg 99%
    12:00 -1°C° 0.5 mm 4 mps 745 mmHg 99%
    13:00 -1°C° 0.5 mm 4 mps 745 mmHg 98%
    14:00 -1°C° 0.5 mm 4 mps 745 mmHg 98%
    15:00 -1°C° 0.3 mm 5 mps 744 mmHg 98%
    16:00 -1°C° 0.3 mm 5 mps 744 mmHg 98%
    17:00 -1°C° 0.3 mm 5 mps 743 mmHg 97%
    18:00 -1°C° 0.7 mm 5 mps 743 mmHg 98%
    19:00 -1°C° 0.7 mm 5 mps 743 mmHg 98%
    20:00 -1°C° 0.7 mm 4 mps 743 mmHg 98%
    21:00 -1°C° 0.2 mm 4 mps 743 mmHg 98%
    22:00 0°C° 0.2 mm 4 mps 743 mmHg 98%
    23:00 0°C° 0.2 mm 4 mps 743 mmHg 98%

    19 February, Wednesday

    Time Temperature Precipitation Wind Pressure Humidity
    00:00 -1°C° 0 mm 4 mps 743 mmHg 97%
    01:00 -1°C° 0 mm 4 mps 743 mmHg 96%
    02:00 -1°C° 0 mm 4 mps 744 mmHg 94%
    03:00 -1°C° 0 mm 4 mps 744 mmHg 94%
    04:00 -1°C° 0 mm 5 mps 744 mmHg 94%
    05:00 -1°C° 0 mm 5 mps 744 mmHg 93%
    06:00 -1°C° 0 mm 5 mps 744 mmHg 93%
    07:00 -1°C° 0 mm 5 mps 744 mmHg 93%
    08:00 -1°C° 0 mm 5 mps 745 mmHg 93%
    09:00 -1°C° 0 mm 5 mps 745 mmHg 95%
    10:00 -1°C° 0 mm 5 mps 745 mmHg 97%
    11:00 -1°C° 0 mm 5 mps 745 mmHg 99%
    12:00 -1°C° 0 mm 4 mps 745 mmHg 97%
    13:00 -1°C° 0 mm 4 mps 745 mmHg 95%
    14:00 -1°C° 0 mm 4 mps 746 mmHg 93%
    15:00 -1°C° 0 mm 4 mps 746 mmHg 91%
    16:00 -1°C° 0 mm 4 mps 746 mmHg 89%
    17:00 -1°C° 0 mm 4 mps 746 mmHg 87%
    18:00 -2°C° 0 mm 4 mps 746 mmHg 88%
    19:00 -2°C° 0 mm 4 mps 747 mmHg 88%
    20:00 -2°C° 0 mm 4 mps 747 mmHg 89%
    21:00 -2°C° 0 mm 3 mps 747 mmHg 89%
    22:00 -2°C° 0 mm 3 mps 747 mmHg 89%
    23:00 -2°C° 0 mm 3 mps 747 mmHg 89%

    20 February, Thursday

    Time Temperature Precipitation Wind Pressure Humidity
    00:00 -2°C° 0 mm 3 mps 747 mmHg 89%
    01:00 -2°C° 0 mm 3 mps 747 mmHg 89%
    02:00 -2°C° 0 mm 3 mps 747 mmHg 89%
    03:00 -4°C° 0 mm 3 mps 747 mmHg 89%
    04:00 -4°C° 0 mm 3 mps 747 mmHg 89%
    05:00 -4°C° 0 mm 3 mps 747 mmHg 90%
    06:00 -4°C° 0 mm 3 mps 747 mmHg 89%
    07:00 -4°C° 0 mm 3 mps 748 mmHg 89%
    08:00 -2°C° 0 mm 3 mps 748 mmHg 89%
    09:00 -2°C° 0 mm 3 mps 748 mmHg 89%
    10:00 -2°C° 0 mm 4 mps 748 mmHg 90%
    11:00 -1°C° 0 mm 4 mps 748 mmHg 90%
    12:00 0°C° 0 mm 3 mps 748 mmHg 91%
    13:00 0°C° 0 mm 3 mps 748 mmHg 92%
    14:00 0°C° 0 mm 3 mps 748 mmHg 93%
    15:00 -1°C° 0 mm 3 mps 748 mmHg 94%
    16:00 -1°C° 0 mm 3 mps 748 mmHg 94%
    17:00 -2°C° 0 mm 3 mps 748 mmHg 94%
    18:00 -2°C° 0 mm 3 mps 749 mmHg 95%
    19:00 -2°C° 0 mm 3 mps 749 mmHg 95%
    20:00 -2°C° 0 mm 3 mps 749 mmHg 95%
    21:00 -2°C° 0 mm 3 mps 749 mmHg 95%
    22:00 -2°C° 0 mm 2 mps 749 mmHg 96%
    23:00 -2°C° 0 mm 2 mps 750 mmHg 96%

    21 February, Friday

    Time Temperature Precipitation Wind Pressure Humidity
    00:00 -2°C° 0 mm 2 mps 750 mmHg 96%
    01:00 -2°C° 0 mm 2 mps 750 mmHg 97%
    02:00 -2°C° 0 mm 2 mps 750 mmHg 97%
    03:00 -2°C° 0 mm 2 mps 750 mmHg 97%
    04:00 0°C° 0 mm 1 mps 750 mmHg 98%
    05:00 0°C° 0 mm 1 mps 750 mmHg 98%
    06:00 0°C° 0.1 mm 1 mps 750 mmHg 98%
    07:00 0°C° 0.1 mm 1 mps 750 mmHg 98%
    08:00 +1°C° 0.1 mm 1 mps 751 mmHg 97%
    15:00 +1°C° 0 mm 1 mps 750 mmHg 98%
    16:00 +1°C° 0 mm 1 mps 751 mmHg 98%
    17:00 +1°C° 0 mm 1 mps 751 mmHg 98%
    18:00 +1°C° 0 mm 1 mps 751 mmHg 97%
    19:00 +1°C° 0 mm 1 mps 751 mmHg 96%
    20:00 -1°C° 0 mm 2 mps 751 mmHg 95%
    21:00 -2°C° 0 mm 2 mps 751 mmHg 95%
    22:00 -2°C° 0 mm 2 mps 751 mmHg 95%
    23:00 -2°C° 0 mm 2 mps 750 mmHg 96%
    Show more